Weather History for Cherokee, IA

Change the Weather History Date:

Friday, November 23, 2012

  Actual Average Record
Temperature  
Mean Temperature 26 °F -  
Max Temperature 34 °F 41 °F 68 °F (1974)
Min Temperature 16 °F 21 °F -4 °F (1950)
Degree Days  
Heating Degree Days 39    
Moisture  
Dew Point 9 °F    
Average Humidity 48    
Maximum Humidity 68    
Minimum Humidity 35    
Precipitation  
Precipitation 0.00 in - - ()
Sea Level Pressure  
Sea Level Pressure 30.37 in    
Wind  
Wind Speed 16 mph (NW)    
Max Wind Speed 25 mph    
Max Gust Speed 34 mph    
Visibility 10 miles    
Events      
Averages and records for this station are not official NWS values.
T = Trace of Precipitation, MM = Missing Value Source: NWS Daily Summary

Daily Weather History Graph

Daily Weather History Graph

Search for Another Location

Airport:

Trip Planner

Search our weather history database for the weather conditions in past years. The results will help you decide how hot, cold, wet, or windy it might be!

Date:

Astronomy

Nov. 23, 2012 Rise Set
Actual Time 7:24 AM CST 4:52 PM CST
Civil Twilight 6:53 AM CST 5:23 PM CST
Nautical Twilight 6:18 AM CST 5:58 PM CST
Astronomical Twilight 5:44 AM CST 6:32 PM CST
Moon 2:12 PM CST (11/23) 2:38 AM CST (11/23)
Length of Visible Light 10h 30m
Length of Day
9h 28m
Waxing Gibbous, 80% of the Moon is Illuminated
Nov 23
Waxing Gibbous
Nov 28
Full
Dec 6
Last Quarter
Dec 13
New
Dec 19
First Quarter

Hourly Weather History & Observations

Time (CST) Temp. Windchill Dew Point Humidity Pressure Visibility Wind Dir Wind Speed Gust Speed Precip Events Conditions
12:15 AM 34.7 °F 23.1 °F 12.2 °F 39% 30.20 in 10.0 mi NW 21.9 mph 31.1 mph N/A   Overcast
12:35 AM 33.4 °F 21.4 °F 12.2 °F 42% 30.22 in 10.0 mi NW 21.9 mph 34.5 mph N/A   Overcast
12:55 AM 31.8 °F 19.9 °F 11.8 °F 44% 30.22 in 10.0 mi NW 19.6 mph 31.1 mph N/A   Mostly Cloudy
1:15 AM 31.6 °F 20.0 °F 13.1 °F 46% 30.23 in 10.0 mi NW 18.4 mph 27.6 mph N/A   Mostly Cloudy
1:35 AM 31.6 °F 20.4 °F 12.9 °F 46% 30.24 in 10.0 mi NW 17.3 mph 33.4 mph N/A   Overcast
1:55 AM 31.1 °F 19.3 °F 13.1 °F 47% 30.24 in 10.0 mi NW 18.4 mph 33.4 mph N/A   Overcast
2:15 AM 31.1 °F 18.6 °F 13.1 °F 47% 30.26 in 10.0 mi NW 20.7 mph 33.4 mph N/A   Overcast
2:35 AM 30.9 °F 17.8 °F 13.1 °F 48% 30.27 in 10.0 mi NW 23.0 mph 31.1 mph N/A   Overcast
2:55 AM 30.2 °F 17.4 °F 12.7 °F 48% 30.28 in 10.0 mi NW 20.7 mph 33.4 mph N/A   Overcast
3:15 AM 28.8 °F 16.2 °F 10.2 °F 46% 30.29 in 10.0 mi NW 18.4 mph 26.5 mph N/A   Mostly Cloudy
3:35 AM 27.5 °F 14.2 °F 10.4 °F 49% 30.30 in 10.0 mi NW 19.6 mph 32.2 mph N/A   Scattered Clouds
3:55 AM 27.1 °F 15.4 °F 10.9 °F 51% 30.31 in 10.0 mi NW 15.0 mph 25.3 mph N/A   Scattered Clouds
4:15 AM 27.1 °F 13.4 °F 10.6 °F 50% 30.31 in 10.0 mi NW 20.7 mph 33.4 mph N/A   Scattered Clouds
4:35 AM 26.6 °F 14.7 °F 10.9 °F 52% 30.32 in 10.0 mi NW 15.0 mph 27.6 mph N/A   Scattered Clouds
4:55 AM 26.2 °F 11.9 °F 10.8 °F 52% 30.32 in 10.0 mi NW 21.9 mph 32.2 mph N/A   Clear
5:15 AM 26.1 °F 13.1 °F 11.1 °F 53% 30.33 in 10.0 mi NW 17.3 mph 24.2 mph N/A   Clear
5:35 AM 25.5 °F 11.6 °F 11.7 °F 56% 30.33 in 10.0 mi NW 19.6 mph 28.8 mph N/A   Clear
5:55 AM 25.2 °F 12.0 °F 11.5 °F 56% 30.33 in 10.0 mi NW 17.3 mph 23.0 mph N/A   Clear
6:15 AM 24.8 °F 11.5 °F 11.3 °F 57% 30.34 in 10.0 mi NW 17.3 mph 20.7 mph N/A   Clear
6:35 AM 24.8 °F 12.9 °F 11.3 °F 57% 30.35 in 10.0 mi NW 13.8 mph 23.0 mph N/A   Clear
6:55 AM 24.4 °F 13.0 °F 10.9 °F 57% 30.35 in 10.0 mi NW 12.7 mph 26.5 mph N/A   Clear
7:15 AM 24.1 °F 11.0 °F 10.9 °F 57% 30.36 in 10.0 mi NW 16.1 mph 25.3 mph N/A   Clear
7:35 AM 23.9 °F 11.2 °F 10.9 °F 58% 30.38 in 10.0 mi NW 15.0 mph 23.0 mph N/A   Clear
7:55 AM 23.9 °F 11.2 °F 10.8 °F 57% 30.38 in 10.0 mi NW 15.0 mph 21.9 mph N/A   Scattered Clouds
8:15 AM 23.9 °F 7.8 °F 8.8 °F 53% 30.39 in 10.0 mi NW 25.3 mph 33.4 mph N/A   Mostly Cloudy
8:35 AM 24.3 °F 9.6 °F 9.1 °F 53% 30.40 in 10.0 mi NNW 20.7 mph 31.1 mph N/A   Mostly Cloudy
8:55 AM 25.3 °F 11.0 °F 8.6 °F 49% 30.40 in 10.0 mi NNW 20.7 mph 33.4 mph N/A   Mostly Cloudy
9:15 AM 26.4 °F 13.2 °F 8.6 °F 47% 30.41 in 10.0 mi NNW 18.4 mph 27.6 mph N/A   Scattered Clouds
9:35 AM 26.6 °F 13.4 °F 8.2 °F 46% 30.42 in 10.0 mi NNW 18.4 mph 28.8 mph N/A   Mostly Cloudy
9:55 AM 27.0 °F 12.8 °F 8.6 °F 46% 30.43 in 10.0 mi NW 21.9 mph 29.9 mph N/A   Overcast
10:15 AM 27.5 °F 13.2 °F 8.2 °F 44% 30.43 in 10.0 mi NNW 23.0 mph 29.9 mph N/A   Mostly Cloudy
10:35 AM 27.7 °F 14.5 °F 7.9 °F 43% 30.44 in 10.0 mi North 19.6 mph 28.8 mph N/A   Mostly Cloudy
10:55 AM 29.3 °F 17.0 °F 7.5 °F 40% 30.44 in 10.0 mi North 18.4 mph 27.6 mph N/A   Scattered Clouds
11:15 AM 29.5 °F 18.8 °F 7.7 °F 40% 30.44 in 10.0 mi NNW 13.8 mph 28.8 mph N/A   Scattered Clouds
11:35 AM 30.6 °F 18.6 °F 7.3 °F 38% 30.43 in 10.0 mi NW 18.4 mph 27.6 mph N/A   Mostly Cloudy
11:55 AM 30.4 °F 19.5 °F 7.5 °F 38% 30.43 in 10.0 mi NNW 15.0 mph 24.2 mph N/A   Scattered Clouds
12:15 PM 30.6 °F 17.6 °F 7.5 °F 38% 30.43 in 10.0 mi NNW 21.9 mph 28.8 mph N/A   Scattered Clouds
12:35 PM 31.6 °F 21.2 °F 7.3 °F 36% 30.43 in 10.0 mi NW 15.0 mph 27.6 mph N/A   Scattered Clouds
12:55 PM 31.6 °F 19.0 °F 7.5 °F 36% 30.42 in 10.0 mi NNW 21.9 mph 26.5 mph N/A   Scattered Clouds
1:15 PM 31.5 °F 20.1 °F 7.5 °F 37% 30.42 in 10.0 mi NW 17.3 mph 25.3 mph N/A   Scattered Clouds
1:35 PM 32.0 °F 21.6 °F 7.5 °F 36% 30.42 in 10.0 mi NW 15.0 mph 24.2 mph N/A   Clear
1:55 PM 32.0 °F 21.2 °F 7.2 °F 35% 30.42 in 10.0 mi NW 16.1 mph 23.0 mph N/A   Clear
2:15 PM 32.0 °F 22.1 °F 7.3 °F 36% 30.41 in 10.0 mi NW 13.8 mph - N/A   Clear
2:35 PM 32.0 °F 21.6 °F 7.2 °F 35% 30.41 in 10.0 mi WNW 15.0 mph 23.0 mph N/A   Clear
2:55 PM 32.0 °F 22.1 °F 7.2 °F 35% 30.41 in 10.0 mi NW 13.8 mph - N/A   Clear
3:15 PM 32.0 °F 22.1 °F 7.2 °F 35% 30.41 in 10.0 mi NW 13.8 mph 19.6 mph N/A   Clear
3:35 PM 31.3 °F 20.7 °F 7.5 °F 37% 30.42 in 10.0 mi NNW 15.0 mph 19.6 mph N/A   Clear
3:55 PM 30.7 °F 21.4 °F 7.2 °F 37% 30.42 in 10.0 mi NW 11.5 mph - N/A   Clear
4:15 PM 30.9 °F 22.2 °F 7.2 °F 37% 30.42 in 10.0 mi NW 10.4 mph 17.3 mph N/A   Clear
4:35 PM 30.2 °F 20.8 °F 7.5 °F 39% 30.42 in 10.0 mi NW 11.5 mph 16.1 mph N/A   Clear
4:55 PM 29.1 °F 23.0 °F 7.7 °F 41% 30.42 in 10.0 mi NW 5.8 mph - N/A   Clear
5:15 PM 28.2 °F 21.0 °F 8.1 °F 43% 30.41 in 10.0 mi NW 6.9 mph - N/A   Clear
5:35 PM 27.3 °F 20.9 °F 8.2 °F 45% 30.41 in 10.0 mi NW 5.8 mph - N/A   Clear
5:55 PM 26.8 °F 18.5 °F 8.1 °F 45% 30.42 in 10.0 mi NNW 8.1 mph - N/A   Clear
6:15 PM 26.2 °F 18.6 °F 8.4 °F 47% 30.42 in 10.0 mi NNW 6.9 mph - N/A   Clear
6:35 PM 25.5 °F 19.9 °F 8.1 °F 48% 30.42 in 10.0 mi NNW 4.6 mph - N/A   Clear
6:55 PM 24.6 °F - 8.4 °F 50% 30.42 in 10.0 mi Calm Calm - N/A   Clear
7:15 PM 24.6 °F - 7.9 °F 49% 30.41 in 10.0 mi Calm Calm - N/A   Clear
7:35 PM 22.1 °F - 8.2 °F 55% 30.41 in 10.0 mi Calm Calm - N/A   Clear
7:55 PM 21.4 °F - 7.2 °F 54% 30.41 in 10.0 mi Calm Calm - N/A   Clear
8:15 PM 19.6 °F - 9.5 °F 65% 30.41 in 10.0 mi Calm Calm - N/A   Clear
8:35 PM 20.3 °F - 10.0 °F 65% 30.41 in 10.0 mi Calm Calm - N/A   Clear
8:55 PM 19.0 °F - 8.1 °F 62% 30.40 in 10.0 mi Calm Calm - N/A   Clear
9:15 PM 18.9 °F - 7.9 °F 62% 30.40 in 10.0 mi Calm Calm - N/A   Clear
9:35 PM 18.9 °F - 7.9 °F 62% 30.39 in 10.0 mi Calm Calm - N/A   Clear
9:55 PM 19.6 °F - 8.1 °F 61% 30.39 in 10.0 mi Calm Calm - N/A   Clear
10:15 PM 19.6 °F - 7.5 °F 60% 30.39 in 10.0 mi Calm Calm - N/A   Clear
10:35 PM 19.2 °F - 8.6 °F 63% 30.38 in 10.0 mi Calm Calm - N/A   Clear
10:55 PM 18.7 °F - 9.5 °F 67% 30.38 in 10.0 mi Calm Calm - N/A   Clear
11:15 PM 19.2 °F - 8.6 °F 63% 30.36 in 10.0 mi Calm Calm - N/A   Clear
11:35 PM 16.7 °F - 7.7 °F 68% 30.38 in 10.0 mi Calm Calm - N/A   Clear